Location: Freistadt
(48.5112°N, 14.5013°E)
Time: 10:02:05
(UTC+02:00)

MOZHAYETS 4 - Pass Details

Date: 30 March 2023
Orbit: 657 x 675 km, 98.2° (Epoch: 03 June)

Event Time Altitude Azimuth Distance (km) Brightness Sun altitude
Exits shadow 02:09:42 16° 56° (NE) 1,724 10.3 -36.1°
Drops below altitude 10° 02:12:15 10° 21° (NNE) 2,087 11.0 -36.0°
Sets 02:15:14 0° 0° (N) 3,008 12.0 -35.8°
